Regional Weather Roundup
Issued by NWS

Home | Current Version | Previous Version | Text Only | Print | Product List | Glossary Off
Versions: 1 2 3 4 5 6 7 8 9 10 11 12 13 14 15 16 17 18 19 20 21 22 23 24 25 26 27 28 29 30 31 32 33 34 35 36 37 38 39 40 41 42 43 44 45 46 47 48 49 50

000
ASUS43 KFSD 130610
RWRSD

WEATHER ROUNDUP FOR SOUTH DAKOTA
NATIONAL WEATHER SERVICE SIOUX FALLS SD
1200 AM CST SAT FEB 13 2016

NOTE: "FAIR" INDICATES FEW OR NO CLOUDS BELOW 12,000 FEET WITH NO
SIGNIFICANT WEATHER AND/OR OBSTRUCTIONS TO VISIBILITY.


SDZ001>005-009-010-012>017-130700-
NORTHWEST AND NORTH CENTRAL SOUTH DAKOTA

CITY           SKY/WX    TMP DP  RH WIND       PRES   REMARKS
BUFFALO          N/A     18  15  88 SE18      30.15F WCI   2
FAITH            N/A     15  10  80 SE23      30.31F WCI  -3
MOBRIDGE       CLOUDY     8   2  76 SE14      30.47F WCI  -8
$$

SDZ012>016-024>037-041>051-057-063-072>074-130700-
SOUTHWEST AND SOUTH CENTRAL SOUTH DAKOTA

CITY           SKY/WX    TMP DP  RH WIND       PRES   REMARKS
RAPID CTY ARPT CLOUDY    25  22  88 SE16      30.22F WCI  12
PIERRE         CLOUDY    13   5  70 SE14      30.49F WCI  -2
CUSTER         CLOUDY    25  23  92 VRB6      30.15F WCI  18
ELLSWORTH AFB  CLOUDY    24  23  96 SE14      30.20F WCI  12
PHILIP         FLURRIES  20  15  81 E16       30.37F WCI   6
PINE RIDGE     CLOUDY    33  27  78 S18G24    30.25F WCI  22
SPEARFISH      CLOUDY    23  23 100 CALM      30.14F
WINNER         CLOUDY    17   9  70 SE18      30.48F WCI   1
$$

SDZ004>011-016>023-039-040-130700-
NORTHEAST SOUTH DAKOTA

CITY           SKY/WX    TMP DP  RH WIND       PRES   REMARKS
ABERDEEN       CLOUDY     0  -9  65 E3        30.62F
WATERTOWN      CLOUDY    -6 -14  68 CALM      30.56S
BROOKINGS      CLOUDY    -6 -12  75 N3        30.57S
SISSETON         N/A     -9 -14  78 NW3       30.64S
$$

SDZ017-020-022-023-036>040-048>070-130700-
SOUTHEAST SOUTH DAKOTA

CITY           SKY/WX    TMP DP  RH WIND       PRES   REMARKS
SIOUX FALLS    CLOUDY    -2  -7  79 NW3       30.62R
HURON          CLOUDY     3  -4  72 E5        30.63S WCI  -6
CHAMBERLAIN    CLOUDY    10   2  71 SE10      30.54F WCI  -4
MITCHELL       CLOUDY     6  -2  69 E7        30.64S WCI  -6
YANKTON        CLOUDY     7  -2  66 NE5       30.64S WCI  -2
$$

ABBREVIATIONS USED IN REMARKS
   TC - TEMPERATURE IN CELSIUS
  WCI - WIND CHILL INDEX
   HX - HEAT INDEX
  VSB - VISIBILITY




USA.gov is the U.S. government's official web portal to all federal, state and local government web resources and services.